Wetbulb
62.25 66.66 66.86 66.84 67.26 67.72 67.81 67.37 67.09 67.48 68.97 68.78 71.19 70.92 73.40 73.85 73.23 73.39 73.72 73.55 72.74 71.87 71.59 71.65 71.88 71.04 72.65 73.04 74.34 74.16 72.94 71.93 71.43
62.32 62.53 67.59 68.00 67.88 67.80 67.94 67.62 67.18 67.63 68.86 69.81 71.25 72.56 72.01 72.63 74.76 73.87 73.55 73.20 73.27 73.69 73.71 73.97 72.55 72.91 72.24 70.45 73.22 74.69 73.78 72.24 71.25
59.99 64.38 63.38 68.63 68.79 68.73 68.81 68.76 68.43 68.65 69.46 70.23 71.59 72.69 73.60 73.28 73.13 74.61 74.67 74.04 74.35 74.81 74.49 74.49 72.71 71.64 71.76 71.49 73.92 74.85 73.89 73.29 72.40
59.52 61.24 64.61 67.81 68.89 69.28 69.33 69.73 69.68 70.02 70.69 71.41 72.19 72.67 73.13 72.72 73.26 73.73 74.07 74.22 74.09 74.17 74.34 73.84 73.42 73.30 72.58 73.82 75.41 75.05 74.39 72.72 72.26
60.77 63.11 67.88 68.32 68.86 69.27 69.18 69.35 70.50 71.87 73.32 72.83 72.92 72.61 71.61 72.99 72.73 72.98 72.83 73.42 74.38 74.22 73.67 74.42 74.57 74.54 75.16 75.36 75.16 74.91 74.59 72.91 72.94
62.01 67.39 67.26 67.73 68.40 67.81 68.00 69.11 69.84 69.91 70.40 72.25 72.35 71.82 71.86 71.14 71.58 71.93 71.88 71.26 72.32 73.05 73.18 74.52 75.92 75.52 75.32 75.35 75.34 75.19 75.48 74.83 73.80
61.74 65.81 66.57 67.49 67.88 68.96 69.21 70.01 68.93 68.79 69.90 71.12 71.33 70.39 70.70 69.38 68.86 69.63 69.79 70.57 70.20 72.32 74.07 75.10 75.66 75.99 75.21 75.82 75.97 75.80 75.34 75.45 73.31
63.60 63.45 67.39 67.44 67.86 68.74 69.90 69.93 71.88 72.31 72.08 72.70 73.70 73.69 73.96 74.11 74.85 74.66 74.46 74.38 74.02 74.59 74.42 74.94 74.70 74.66 75.46 75.81 74.93 75.94 74.23 74.93 74.17
63.17 62.58 67.52 68.33 68.96 69.63 70.17 71.04 71.71 72.18 72.70 73.32 73.60 72.45 72.11 71.58 72.61 72.63 73.46 73.62 73.52 73.83 74.07 73.53 73.70 73.30 73.62 73.66 75.36 72.57 70.77 71.34 71.78
63.34 66.06 68.35 68.47 69.38 69.40 70.25 70.05 70.52 71.63 71.64 71.51 70.47 69.58 69.02 69.06 69.76 70.22 71.04 72.13 71.82 71.59 71.63 71.60 71.53 71.44 72.61 73.35 73.79 69.37 68.75 69.54 71.31
63.17 68.45 68.88 68.89 69.29 69.14 68.51 69.70 69.52 69.09 68.55 67.44 66.66 66.08 66.38 66.60 66.77 66.78 67.35 67.53 67.50 68.20 70.79 71.08 70.62 71.19 72.43 72.51 73.55 69.75 67.55 69.09 69.78
69.02 68.83 67.86 66.58 67.09 67.21 66.70 66.14 66.21 65.74 65.37 65.15 64.53 64.59 64.88 65.26 65.68 65.17 65.34 64.76 65.37 66.57 66.93 67.04 68.45 69.79 69.75 70.41 71.42 68.56 65.62 66.90 68.34
68.93 67.13 66.77 66.01 66.08 66.49 65.63 65.39 65.86 64.81 63.69 62.92 62.24 62.85 63.62 64.24 64.24 62.85 61.55 62.55 63.11 63.70 64.21 64.87 66.17 66.72 67.50 67.97 69.11 68.19 66.32 64.65 68.48
67.37 66.57 66.34 65.94 64.82 64.10 64.27 65.13 65.04 63.79 62.15 61.56 62.65 63.27 62.77 63.56 63.01 62.57 63.00 62.39 62.43 62.70 62.67 62.82 62.73 63.56 64.73 65.59 65.57 65.59 61.94 62.20 66.07
64.92 63.80 63.82 63.99 62.87 62.49 63.14 64.04 63.60 62.69 61.43 62.48 61.87 61.55 62.46 62.57 62.83 62.92 63.56 60.64 61.27 62.84 62.91 62.20 61.78 59.59 58.58 61.00 60.55 59.04 58.34 58.54 59.82
63.65 63.41 63.61 63.85 62.98 62.09 62.19 62.17 62.05 61.24 61.55 61.53 61.31 61.87 61.76 62.20 62.94 62.87 63.42 61.15 60.79 61.24 59.06 57.45 56.54 56.23 55.36 55.65 57.69 59.76 57.50 56.98 58.00
63.20 63.36 63.08 63.67 62.89 61.62 61.35 62.12 61.96 61.52 61.22 61.96 61.81 61.38 61.37 62.09 61.61 60.77 61.16 61.31 60.90 58.15 57.41 56.35 56.28 55.41 55.10 55.73 56.54 57.02 55.49 54.86 55.47
63.29 63.12 63.45 63.54 62.77 61.65 60.87 60.68 61.01 61.98 62.22 61.90 60.20 59.98 59.98 58.06 58.64 58.54 58.30 58.93 57.48 58.27 56.78 55.74 55.40 55.95 56.45 55.56 55.44 56.34 51.47 50.22 52.40
63.27 63.04 63.16 62.63 61.31 60.60 60.55 61.72 61.59 61.55 61.29 60.06 58.81 59.00 58.22 57.30 57.23 57.39 57.32 57.00 56.86 56.93 54.64 53.84 51.70 50.68 51.02 55.90 54.60 51.59 49.11 44.91 44.48
61.64 62.68 62.60 61.81 60.89 61.33 61.44 61.25 60.26 61.36 60.59 59.64 58.62 58.23 57.40 57.73 56.98 57.20 57.36 58.36 56.12 55.50 58.31 55.77 52.20 49.67 48.81 48.16 48.80 47.16 45.23 43.39 44.31
MSLP
1006.33 1005.42 1005.39 1005.92 1006.39 1006.67 1007.33 1008.17 1009.02 1009.59 1010.38 1011.08 1011.51 1011.86 1012.25 1012.43 1012.77 1013.15 1013.39 1013.89 1014.55 1014.44 1014.98 1015.62 1015.10 1015.59 1015.01 1014.70 1014.81 1015.47 1016.20 1016.59 1016.67
1005.46 1005.88 1004.35 1004.67 1005.13 1005.68 1006.34 1006.96 1007.60 1008.26 1009.09 1009.77 1010.38 1010.74 1011.43 1011.96 1012.31 1012.72 1012.92 1013.17 1013.80 1013.60 1013.58 1014.41 1014.67 1014.77 1014.52 1014.24 1014.48 1015.06 1015.69 1016.25 1016.41
1006.21 1007.28 1007.59 1004.09 1004.44 1005.20 1005.74 1006.08 1006.66 1007.40 1008.14 1008.71 1009.27 1009.89 1010.70 1011.27 1011.70 1012.12 1012.46 1012.85 1013.18 1013.42 1013.47 1013.70 1014.33 1014.31 1014.26 1014.20 1014.25 1014.82 1015.49 1015.88 1015.90
1009.16 1009.08 1007.09 1004.61 1004.66 1004.31 1005.19 1005.59 1006.29 1006.84 1007.77 1008.60 1009.34 1009.84 1010.36 1010.98 1011.48 1011.78 1012.16 1012.47 1012.74 1012.95 1013.19 1013.36 1013.74 1013.94 1014.11 1013.92 1014.16 1014.42 1015.00 1015.34 1015.59
1009.51 1008.95 1004.52 1005.00 1005.02 1005.09 1005.13 1005.22 1005.93 1006.82 1007.65 1008.46 1009.05 1009.44 1010.09 1010.56 1010.94 1011.26 1011.62 1011.89 1012.00 1012.12 1012.41 1012.66 1012.71 1013.10 1013.27 1013.40 1013.61 1013.98 1014.28 1014.77 1015.04
1006.72 1005.10 1005.43 1005.69 1005.69 1005.98 1006.06 1006.27 1006.57 1007.07 1007.72 1008.48 1008.89 1009.33 1009.77 1010.04 1010.31 1010.67 1010.95 1011.18 1011.19 1011.27 1011.59 1011.75 1011.99 1012.25 1012.53 1012.81 1013.08 1013.49 1013.71 1013.89 1014.20
1006.55 1006.07 1006.01 1006.24 1006.55 1006.78 1007.00 1007.20 1007.39 1007.70 1008.21 1008.73 1009.05 1009.37 1009.70 1009.72 1009.97 1010.54 1010.86 1010.84 1010.99 1010.85 1010.78 1011.00 1011.32 1011.52 1011.87 1012.00 1012.27 1012.71 1013.01 1013.10 1013.30
1006.22 1006.84 1006.10 1006.38 1006.99 1007.66 1007.67 1007.77 1008.26 1008.69 1008.97 1009.31 1009.68 1010.05 1010.23 1010.32 1010.46 1010.51 1010.73 1010.94 1010.89 1010.65 1010.71 1010.77 1010.93 1011.03 1011.29 1011.46 1011.74 1012.05 1012.30 1012.35 1012.71
1006.10 1007.01 1006.27 1006.83 1007.49 1007.82 1007.88 1008.46 1009.01 1009.35 1009.66 1009.91 1010.12 1010.52 1010.90 1011.12 1010.94 1010.84 1010.97 1011.05 1011.07 1010.99 1010.90 1010.88 1011.05 1011.17 1011.23 1011.30 1011.21 1011.60 1011.66 1011.90 1012.37
1006.01 1006.98 1006.34 1007.21 1007.45 1007.84 1008.52 1009.03 1009.41 1010.01 1010.32 1010.57 1010.96 1011.28 1011.59 1011.68 1011.60 1011.60 1011.58 1011.42 1011.39 1011.35 1011.30 1011.25 1011.35 1011.47 1011.35 1011.29 1011.23 1011.39 1011.54 1011.99 1012.31
1006.10 1005.23 1006.30 1007.17 1007.59 1008.44 1009.05 1009.61 1010.10 1010.54 1010.93 1011.34 1011.69 1012.02 1012.24 1012.35 1012.39 1012.44 1012.40 1012.31 1012.19 1011.99 1011.73 1011.62 1011.48 1011.35 1011.23 1011.20 1011.19 1011.16 1011.54 1011.82 1011.97
1004.82 1005.44 1006.48 1007.36 1008.31 1008.85 1009.48 1010.25 1010.75 1011.14 1011.66 1012.04 1012.37 1012.71 1012.86 1012.91 1012.96 1013.03 1013.02 1012.91 1012.71 1012.47 1012.34 1012.18 1011.97 1011.65 1011.42 1011.35 1011.25 1011.28 1011.54 1011.68 1011.68
1004.91 1005.85 1006.79 1007.52 1008.42 1009.15 1009.94 1010.77 1011.17 1011.76 1012.39 1012.76 1013.14 1013.24 1013.23 1013.12 1013.19 1013.35 1013.31 1013.28 1013.15 1012.84 1012.66 1012.55 1012.27 1012.01 1011.63 1011.37 1011.30 1011.18 1011.11 1011.27 1011.44
1005.02 1006.07 1007.00 1007.77 1008.71 1009.75 1010.57 1011.08 1011.56 1012.37 1012.85 1013.28 1013.31 1013.25 1013.20 1013.20 1013.19 1013.26 1013.26 1013.21 1013.07 1012.96 1012.89 1012.74 1012.61 1012.40 1012.01 1011.76 1011.91 1011.74 1011.31 1011.16 1011.16
1005.51 1006.49 1007.45 1008.41 1009.52 1010.57 1011.11 1011.45 1011.90 1012.81 1013.26 1013.32 1013.33 1013.35 1013.38 1013.25 1013.12 1013.09 1013.04 1013.10 1013.04 1012.91 1012.95 1013.02 1013.12 1012.98 1012.76 1012.61 1012.50 1012.23 1011.97 1011.78 1011.76
1006.06 1006.99 1008.09 1009.09 1010.00 1010.96 1011.51 1011.88 1012.30 1013.06 1013.27 1013.40 1013.47 1013.51 1013.44 1013.26 1013.04 1013.03 1012.97 1013.03 1013.09 1013.14 1013.12 1013.22 1013.25 1013.15 1013.06 1012.96 1012.64 1012.45 1012.24 1012.13 1012.00
1006.08 1007.18 1008.39 1009.32 1010.28 1011.19 1011.90 1012.21 1012.57 1012.94 1013.17 1013.24 1013.48 1013.54 1013.49 1013.36 1013.32 1013.28 1013.27 1013.20 1013.20 1013.15 1013.28 1013.42 1013.48 1013.46 1013.37 1013.12 1012.94 1012.72 1012.45 1012.32 1012.17
1005.45 1006.86 1008.25 1009.34 1010.43 1011.38 1012.03 1012.29 1012.70 1012.98 1013.15 1013.36 1013.65 1013.75 1013.85 1013.82 1013.91 1013.91 1013.86 1013.88 1013.76 1013.66 1013.45 1013.32 1013.29 1013.27 1013.41 1013.42 1013.17 1012.69 1012.62 1012.58 1012.47
1005.45 1006.77 1008.11 1009.53 1010.74 1011.53 1012.06 1012.50 1012.93 1013.25 1013.43 1013.61 1013.83 1014.02 1014.13 1014.27 1014.33 1014.27 1014.21 1014.10 1013.83 1013.40 1013.32 1013.10 1013.35 1013.43 1013.49 1013.14 1013.10 1012.84 1012.47 1012.42 1012.15
1005.80 1007.11 1008.15 1009.47 1010.73 1011.57 1012.21 1012.87 1013.19 1013.41 1013.52 1013.69 1013.95 1014.22 1014.23 1014.47 1014.40 1014.40 1014.34 1014.23 1014.23 1014.34 1013.49 1013.34 1013.13 1013.09 1013.18 1013.41 1013.24 1012.95 1012.71 1012.29 1011.76
Wind_Speed
10 15 15 18 19 18 20 20 22 20 21 18 18 17 13 13 12 7 5 4 4 5 6 12 10 16 10 8 7 9 7 6 6
21 8 20 20 21 20 20 20 23 21 19 20 19 18 14 10 7 8 7 7 5 4 5 6 13 15 10 7 7 10 10 7 7
30 9 22 17 14 19 18 19 18 19 16 20 19 17 13 11 10 7 7 6 6 5 5 1 10 9 7 7 7 9 9 6 6
24 31 19 8 5 7 11 18 17 14 12 13 12 12 9 7 6 7 6 6 6 6 6 6 6 10 8 9 10 9 8 7 7
25 30 11 8 8 8 8 6 15 11 12 12 11 10 8 10 7 7 7 7 9 8 7 7 8 7 9 9 8 10 10 9 8
8 12 10 8 9 8 8 8 10 8 9 9 9 9 10 8 9 8 8 8 8 9 8 8 8 8 7 8 8 7 9 9 8
3 3 9 8 7 7 7 7 8 8 6 6 1 4 2 6 6 3 6 5 6 5 7 8 8 8 8 7 9 8 8 9 8
5 12 11 10 8 7 7 9 11 10 8 8 8 7 7 7 6 5 6 4 3 4 4 2 4 5 6 7 6 6 7 7 7
7 10 10 10 10 8 9 9 9 9 7 7 10 9 8 7 7 7 6 6 6 6 5 6 4 3 3 5 4 9 11 7 4
10 13 15 11 10 10 10 8 7 9 10 10 10 9 8 9 9 8 8 7 6 5 3 2 3 4 4 5 5 8 6 6 4
12 17 12 9 10 11 10 10 10 10 9 8 8 7 7 7 7 7 7 7 7 7 6 6 5 5 5 4 4 5 10 10 6
15 16 14 14 11 12 13 11 8 9 8 7 7 6 6 5 6 6 6 7 7 5 6 5 5 6 6 5 6 7 8 7 6
17 16 17 16 15 13 11 7 8 8 7 7 6 5 4 4 4 4 4 4 4 3 3 5 5 6 6 8 6 7 8 10 5
15 17 17 15 12 9 8 7 8 8 7 6 3 4 3 3 2 3 2 2 2 3 4 5 6 6 7 7 9 11 13 10 3
17 19 18 16 13 10 7 7 8 7 7 3 4 3 3 3 1 2 2 3 4 5 5 5 6 5 5 6 5 10 12 14 9
16 17 14 13 12 9 7 7 7 7 3 4 2 3 2 3 4 3 3 3 5 3 5 5 4 4 4 4 4 3 8 8 8
14 12 14 13 12 9 7 6 6 7 5 2 3 3 5 6 5 6 6 5 5 3 5 5 4 4 4 4 4 5 5 4 5
15 15 11 11 10 8 7 7 7 6 6 7 5 6 5 6 5 6 6 5 4 3 1 2 1 3 2 4 5 4 2 3 4
15 16 15 13 9 9 7 7 7 7 7 7 4 5 4 4 4 4 4 4 5 7 4 6 5 8 4 4 8 12 12 5 7
16 16 16 13 10 8 8 7 7 7 6 4 2 2 3 3 3 2 1 3 3 4 7 6 10 9 7 6 12 16 12 9 12
Wind_Direction
352 190 178 177 187 183 184 183 186 191 186 197 200 205 203 202 207 208 214 212 185 224 190 186 172 207 227 200 196 191 199 198 202
292 293 182 183 189 191 187 185 188 191 183 193 195 199 204 203 183 197 203 210 201 238 254 140 180 203 205 213 200 189 185 199 197
296 324 296 191 192 195 190 194 190 191 186 187 192 193 194 199 199 197 203 193 211 213 241 256 173 203 218 205 201 186 186 198 189
249 256 266 108 82 162 180 193 190 187 176 169 180 186 189 188 192 204 203 206 212 218 219 234 195 193 214 207 199 184 184 191 194
237 254 91 93 74 58 61 109 175 144 141 154 168 177 172 199 195 201 206 207 221 219 213 208 216 202 195 204 187 190 188 194 205
309 87 85 80 73 73 73 64 92 111 125 155 171 178 199 197 192 197 205 201 211 230 208 208 199 201 200 193 194 188 198 199 196
303 258 115 101 94 86 86 92 98 105 99 95 140 143 219 223 211 247 235 230 275 258 228 209 195 194 203 207 196 201 206 202 193
338 317 131 126 106 105 95 75 73 75 66 68 74 76 62 49 79 87 78 87 34 25 25 52 229 220 213 216 205 217 222 209 208
260 293 142 128 132 113 92 84 84 81 83 67 69 65 52 40 39 36 55 48 31 21 9 17 10 328 272 262 250 230 242 254 161
220 234 123 137 129 114 101 100 92 70 71 66 62 58 46 38 33 31 23 20 14 5 4 6 339 300 286 271 256 257 186 227 224
210 129 129 111 110 101 89 84 85 84 77 73 70 60 47 35 33 27 19 21 13 9 1 345 328 329 329 320 296 274 161 181 194
132 118 107 103 106 105 98 93 91 86 76 74 66 59 53 39 37 26 15 5 351 356 6 354 349 333 334 335 321 301 191 184 205
115 105 113 111 105 103 104 111 104 96 90 78 62 48 39 39 57 28 344 343 13 344 347 330 336 332 328 323 313 301 281 200 217
118 125 122 113 103 101 112 118 109 99 90 76 57 33 6 38 37 351 28 32 327 314 314 318 322 320 316 315 3 5 8 337 287
113 110 106 104 100 93 81 81 94 97 91 82 46 354 336 1 339 317 327 337 307 314 320 343 3 22 19 62 61 44 40 45 53
118 119 116 112 112 106 94 86 92 104 112 85 8 335 337 302 288 273 281 300 330 14 66 57 14 13 360 355 341 10 23 30 11
127 122 125 126 125 123 130 132 106 120 120 115 12 16 350 350 24 24 16 22 15 37 57 41 12 355 345 336 334 332 342 352 349
135 132 137 136 129 130 131 117 105 98 93 76 45 7 48 37 39 38 27 31 25 31 45 124 262 302 320 333 324 291 283 297 321
124 116 114 110 114 119 127 117 101 82 88 87 63 45 44 68 57 28 32 13 347 338 299 290 315 295 263 302 275 300 322 349 291
126 122 122 122 123 117 115 113 112 107 111 111 98 30 58 108 99 58 25 355 20 346 325 280 282 290 304 268 266 305 337 336 319